RH
22 21 21 22 21 19 17 17 16 16 17 19 19 19 20 21 22 22 21 21 21 22 24 25 27 26 26 26 27 28 29 31 32 32 33 33 29 27 29 31 28 28 30
28 28 26 22 20 22 22 20 19 19 18 19 21 22 23 24 24 24 23 22 21 22 24 25 26 29 30 30 30 29 29 31 33 35 37 37 35 33 30 35 38 41 40
27 28 28 29 29 25 26 26 26 25 24 24 22 23 24 24 23 24 24 23 22 24 25 25 27 28 29 31 34 35 37 37 35 38 37 39 41 40 37 41 44 47 45
30 30 30 31 32 32 29 27 28 28 27 27 26 26 26 26 27 27 28 28 29 30 29 29 29 29 30 30 33 37 40 43 47 44 41 42 43 45 44 43 46 50 51
30 31 30 31 34 35 34 31 29 32 31 30 30 30 30 29 29 30 31 34 36 35 33 32 33 33 33 34 36 40 45 48 47 46 44 43 43 46 49 50 51 56 53
33 34 34 35 38 39 37 35 35 35 36 35 36 36 34 32 31 31 35 40 39 38 37 38 39 40 40 42 45 47 48 47 45 46 45 43 44 48 48 50 56 60 56
38 40 40 40 42 44 41 39 40 40 37 38 43 38 37 35 34 36 41 43 43 43 43 44 44 44 45 51 52 56 53 50 48 45 45 45 43 44 46 52 61 60 63
41 42 43 44 44 46 46 46 47 47 45 44 46 51 49 43 39 39 40 42 41 42 43 45 46 46 51 53 55 57 57 56 53 50 50 49 47 44 47 57 61 67 71
47 47 47 48 48 48 50 51 52 53 54 53 54 59 61 58 53 47 46 48 49 48 45 46 48 50 54 57 57 58 60 57 54 52 53 52 49 48 54 62 68 73 71
47 47 47 48 47 48 48 50 55 56 58 57 59 57 56 60 61 56 48 49 54 52 50 53 54 54 56 62 62 63 64 63 58 56 52 53 56 58 63 68 72 78 81
39 41 42 43 43 44 45 46 51 55 56 56 55 58 58 58 60 61 57 54 58 57 61 64 65 63 63 65 67 68 71 70 65 67 59 54 58 63 68 72 79 83 81
33 33 33 36 39 43 43 44 50 54 56 63 66 68 64 65 62 66 69 73 74 68 73 72 71 71 73 74 71 70 72 75 71 71 70 62 61 66 70 75 79 85 82
39 41 43 45 47 49 50 53 54 56 58 65 73 79 81 84 88 89 85 81 83 83 78 78 75 75 73 76 78 77 77 76 74 74 72 73 65 66 68 74 76 81 86
39 38 38 39 40 41 44 48 52 56 58 60 62 65 73 78 83 88 88 96 90 84 87 88 87 84 81 82 83 76 77 75 75 78 74 77 77 73 71 76 77 79 85
36 34 34 33 34 35 36 38 40 42 47 52 56 61 65 66 67 71 80 87 89 91 89 90 90 88 84 82 81 80 81 79 79 81 76 82 86 86 81 81 83 85 88
36 36 36 36 37 37 37 38 38 39 41 44 49 55 62 66 68 72 76 80 84 90 82 77 76 82 87 85 80 84 84 86 85 81 79 82 84 87 87 91 91 88 88
39 38 39 39 40 41 42 42 42 43 46 48 49 52 54 58 61 67 70 72 73 77 81 63 71 72 76 81 81 81 81 84 84 88 88 87 84 88 91 96 95 93 94
40 39 38 39 41 42 43 45 47 49 50 52 53 56 56 57 56 57 60 63 67 70 79 73 62 64 65 65 70 73 77 84 85 88 90 92 88 91 93 97 98 99 97
37 36 35 35 36 39 41 43 49 48 51 54 57 57 56 57 55 53 54 56 56 57 62 68 59 57 59 62 64 67 69 80 84 92 97 93 93 93 95 96 99 99 99
25 23 23 23 22 23 24 28 31 37 41 43 45 46 48 45 43 43 50 53 56 60 60 63 65 62 58 58 67 67 67 66 74 98 96 96 94 95 98 99 98 97 98
23 22 20 20 20 20 22 23 27 32 38 38 38 39 40 37 38 49 52 43 47 55 55 55 55 54 57 61 63 66 67 68 68 90 93 92 92 99 95 99 99 98 98
20 20 20 20 21 24 26 24 27 34 35 35 34 35 36 34 38 42 39 40 44 52 52 55 52 51 48 54 58 63 72 74 68 73 91 87 96 97 96 99 98 97 99
23 25 27 27 25 24 23 23 28 29 30 29 27 25 22 24 35 37 34 36 37 42 51 53 53 49 51 49 56 59 68 71 78 74 83 89 99 99 99 97 98 99 98
28 26 24 22 20 18 19 23 22 19 16 15 18 14 14 20 25 32 33 35 34 38 47 51 55 47 50 48 57 60 64 65 71 81 86 89 99 98 98 99 98 98 98
26 24 22 19 18 19 21 19 20 20 21 21 20 19 26 25 22 28 36 41 41 41 47 53 54 51 50 51 57 67 66 71 65 77 90 97 98 98 98 99 98 98 98
24 23 22 22 23 24 23 25 26 27 28 30 30 28 27 24 24 24 32 44 52 51 53 54 53 53 59 59 61 71 72 74 81 85 92 99 96 99 98 98 98 98 98